Starlink 4021

operational
NORAD ID: 53149 Int'l Des: 2022-083 Owner: SPXS Country: US Constellation: starlink
LEOCIRCULAR

Starlink 4021について

説明を読み込み中...

リアルタイム位置

3D地球を読み込み中...

次回通過

高度履歴

Altitude vs Time

uPlot chart will show altitude changes over time

軌道要素

1 53149U 22083T 25350.79184127 .00000821 00000-0 69642-4 0 9993
2 53149 53.2152 176.4644 0001593 99.3521 260.7651 15.08851545188849
Epoch: Dec 16, 2025 • Age: 24 hours

現在のステータス

高度 540.2 km
速度 7.60 km/s
衛星直下点 27.60°N, 50°W
打ち上げ日 Jul 17, 2022
運用期間 3.4 years
タイプ internet

技術仕様

分類 Payload
質量 297.00 kg
乾燥質量 275.00 kg
総質量 297.00 kg
長さ 0.20 m
直径 2.80 m
スパン 9.00 m
形状 Box + pan
製造者 SPXS
バスタイプ Starlink
フェーズステータス In Orbit
所有者/国 SPXS/US

大規模コンステレーション

Loading constellations...